Regional Weather Roundup
Issued by NWS Sioux Falls, SD

Home | Current Version | Previous Version | Text Only | Print | Product List | Glossary Off
Versions: 1 2 3 4 5 6 7 8 9 10 11 12 13 14 15 16 17 18 19 20 21 22 23 24 25 26 27 28 29 30 31 32 33 34 35 36 37 38 39 40 41 42 43 44 45 46 47 48 49 50

000
ASUS43 KFSD 040910
RWRFSD

WEATHER ROUNDUP FOR SE SOUTH DAKOTA/SW MINNESOTA/NW IOWA
NATIONAL WEATHER SERVICE SIOUX FALLS SD
400 AM CDT TUE AUG 04 2015

NOTE: "FAIR" INDICATES FEW OR NO CLOUDS BELOW 12,000 FEET WITH NO
SIGNIFICANT WEATHER AND OR OBSTRUCTIONS TO VISIBILITY.


SDZ038>040-050-052>070-041000-
SOUTHEAST SOUTH DAKOTA

CITY           SKY/WX    TMP DP  RH WIND       PRES   REMARKS
BROOKINGS      CLEAR     55  50  82 CALM      29.99S
CHAMBERLAIN    CLOUDY    65  58  78 SE7       29.95R
HURON          CLEAR     59  55  87 SE5       29.93F
MADISON        FAIR      55  55 100 E3        29.97F
MITCHELL       MOCLDY    60  57  89 SE5       29.94F
SIOUX FALLS    CLEAR     59  56  89 E5        29.96S
WINNER         TSTM      67  62  84 SW10      29.98R
YANKTON        CLOUDY    64  63  94 CALM      29.95R
$$

MNZ071-072-080-081-089-090-097-098-041000-
SOUTHWEST MINNESOTA

CITY           SKY/WX    TMP DP  RH WIND       PRES   REMARKS
FAIRMONT       CLEAR     55  48  76 CALM      29.98S
JACKSON        CLEAR     55  54  94 CALM      29.99F
LUVERNE        CLEAR     59  54  82 CALM      29.97F
MARSHALL       CLEAR     52  48  87 SW6       29.98S
MONTEVIDEO     CLEAR     54  46  76 CALM      29.98S
PIPESTONE      CLEAR     59  54  82 CALM      29.98S
REDWOOD FALLS  CLEAR     56  51  84 CALM      29.96F
TRACY          CLEAR     59  54  82 SW5       29.98F
WINDOM         CLEAR     52  48  87 CALM      29.98F
WORTHINGTON    CLEAR     55  50  82 NE3       29.98F
$$

IAZ001>003-012>014-020>022-031-032-NEZ013-014-SDZ071-041000-
NORTHWEST IOWA

CITY           SKY/WX    TMP DP  RH WIND       PRES   REMARKS
CHEROKEE       CLEAR     60  60 100 NE3       29.96S
DENISON        CLOUDY    66  63  88 CALM      29.93F
ESTHERVILLE    CLEAR     54  52  93 NW3       29.98S
LE MARS        PTCLDY    61  59  94 N3        29.96R
ORANGE CITY    CLEAR     63  59  88 NE5       29.97R
SHELDON        CLEAR     55  54  94 SE3       29.96S
SIOUX CITY     MOCLDY    66  60  81 SE3       29.95R
SPENCER        CLEAR     56  53  90 NE8       29.97F
STORM LAKE     CLEAR     63  57  82 SW5       29.97S
$$

ABBREVIATIONS USED IN REMARKS
   TC - TEMPERATURE IN CELSIUS
  WCI - WIND CHILL INDEX
   HX - HEAT INDEX
  VSB - VISIBILITY




USA.gov is the U.S. government's official web portal to all federal, state and local government web resources and services.